Time,TemperatureF,DewpointF,PressureIn,WindDirection,WindDirectionDegrees,WindSpeedMPH,WindSpeedGustMPH,Humidity,HourlyPrecipIn,Conditions,Clouds,dailyrainin,SoftwareType,DateUTC
2013-01-18 00:01:00,30.1,14.1,30.43,SE,126,3.5,3.5,51,0.00,CLR,,0.00,WeatherDisplay:10.37,2013-01-18 08:01:00,
2013-01-18 00:06:00,29.8,13.9,30.41,East,80,3.0,3.0,51,0.00,CLR,,0.00,WeatherDisplay:10.37,2013-01-18 08:06:00,
2013-01-18 00:11:00,29.8,13.9,30.41,East,97,4.6,4.6,51,0.00,CLR,,0.00,WeatherDisplay:10.37,2013-01-18 08:11:00,
2013-01-18 00:17:00,29.7,13.8,30.42,East,95,4.6,4.6,51,0.00,CLR,,0.00,WeatherDisplay:10.37,2013-01-18 08:17:00,
2013-01-18 00:22:00,29.4,13.9,30.42,East,95,3.0,3.0,52,0.00,CLR,,0.00,WeatherDisplay:10.37,2013-01-18 08:22:00,
2013-01-18 00:27:00,28.7,13.7,30.42,ESE,102,3.5,3.5,53,0.00,CLR,,0.00,WeatherDisplay:10.37,2013-01-18 08:27:00,
2013-01-18 00:32:00,28.2,13.2,30.42,East,97,5.0,5.0,53,0.00,CLR,,0.00,WeatherDisplay:10.37,2013-01-18 08:32:00,
2013-01-18 00:38:00,27.9,13.4,30.42,ESE,109,3.5,3.5,54,0.00,CLR,,0.00,WeatherDisplay:10.37,2013-01-18 08:38:00,
2013-01-18 00:43:00,27.6,13.1,30.42,ESE,109,2.3,2.3,54,0.00,CLR,,0.00,WeatherDisplay:10.37,2013-01-18 08:43:00,
2013-01-18 00:49:00,27.2,13.1,30.42,ESE,104,3.5,3.5,55,0.00,CLR,,0.00,WeatherDisplay:10.37,2013-01-18 08:49:00,
2013-01-18 00:54:00,26.9,12.9,30.42,ESE,106,5.8,5.8,55,0.00,CLR,,0.00,WeatherDisplay:10.37,2013-01-18 08:54:00,
2013-01-18 00:59:00,26.7,13.1,30.42,East,100,4.0,4.0,56,0.00,CLR,,0.00,WeatherDisplay:10.37,2013-01-18 08:59:00,
2013-01-18 01:04:00,26.4,12.8,30.43,ESE,106,4.0,4.0,56,0.00,CLR,,0.00,WeatherDisplay:10.37,2013-01-18 09:04:00,
2013-01-18 01:09:00,26.3,13.1,30.43,ESE,114,4.6,4.6,57,0.00,CLR,,0.00,WeatherDisplay:10.37,2013-01-18 09:09:00,
2013-01-18 01:14:00,26.3,12.7,30.43,East,99,4.6,4.6,56,0.00,CLR,,0.00,WeatherDisplay:10.37,2013-01-18 09:14:00,
2013-01-18 01:19:00,26.3,12.7,30.43,ESE,117,3.0,3.0,56,0.00,CLR,,0.00,WeatherDisplay:10.37,2013-01-18 09:19:00,
2013-01-18 01:24:00,26.3,12.7,30.43,ESE,103,3.5,3.5,56,0.00,CLR,,0.00,WeatherDisplay:10.37,2013-01-18 09:24:00,
2013-01-18 01:29:00,26.1,12.9,30.42,ESE,106,4.6,4.6,57,0.00,CLR,,0.00,WeatherDisplay:10.37,2013-01-18 09:29:00,
2013-01-18 01:34:00,26.1,12.9,30.42,ESE,114,4.6,4.6,57,0.00,CLR,,0.00,WeatherDisplay:10.37,2013-01-18 09:34:00,
2013-01-18 01:39:00,26.4,12.8,30.42,SE,126,4.0,4.0,56,0.00,CLR,,0.00,WeatherDisplay:10.37,2013-01-18 09:39:00,
2013-01-18 01:44:00,26.6,12.6,30.42,ESE,119,5.0,5.0,55,0.00,CLR,,0.00,WeatherDisplay:10.37,2013-01-18 09:44:00,
2013-01-18 01:49:00,26.6,13.0,30.42,ESE,104,3.5,3.5,56,0.00,CLR,,0.00,WeatherDisplay:10.37,2013-01-18 09:49:00,
2013-01-18 01:54:00,26.6,12.6,30.42,ESE,103,5.8,5.8,55,0.00,CLR,,0.00,WeatherDisplay:10.37,2013-01-18 09:54:00,
2013-01-18 01:59:00,26.6,13.0,30.42,East,97,6.0,6.0,56,0.00,CLR,,0.00,WeatherDisplay:10.37,2013-01-18 09:59:00,
2013-01-18 02:04:00,26.7,12.7,30.42,East,99,5.0,5.0,55,0.00,CLR,,0.00,WeatherDisplay:10.37,2013-01-18 10:04:00,
2013-01-18 02:09:00,26.6,12.6,30.42,East,97,5.8,5.8,55,0.00,CLR,,0.00,WeatherDisplay:10.37,2013-01-18 10:09:00,
2013-01-18 02:14:00,26.3,12.3,30.42,East,90,3.5,3.5,55,0.00,CLR,,0.00,WeatherDisplay:10.37,2013-01-18 10:14:00,
2013-01-18 02:19:00,26.1,12.1,30.42,ESE,107,2.3,2.3,55,0.00,CLR,,0.00,WeatherDisplay:10.37,2013-01-18 10:19:00,
2013-01-18 02:24:00,26.1,12.1,30.42,East,93,5.0,5.0,55,0.00,CLR,,0.00,WeatherDisplay:10.37,2013-01-18 10:24:00,
2013-01-18 02:29:00,26.0,12.0,30.42,East,93,2.3,2.3,55,0.00,CLR,,0.00,WeatherDisplay:10.37,2013-01-18 10:29:00,
2013-01-18 02:34:00,25.8,11.8,30.42,East,93,3.5,3.5,55,0.00,CLR,,0.00,WeatherDisplay:10.37,2013-01-18 10:34:00,
2013-01-18 02:39:00,25.7,12.2,30.42,East,93,2.3,2.3,56,0.00,CLR,,0.00,WeatherDisplay:10.37,2013-01-18 10:39:00,
2013-01-18 02:44:00,25.6,12.1,30.42,East,93,5.0,5.0,56,0.00,CLR,,0.00,WeatherDisplay:10.37,2013-01-18 10:44:00,
2013-01-18 02:49:00,25.4,11.9,30.42,ESE,117,5.8,5.8,56,0.00,CLR,,0.00,WeatherDisplay:10.37,2013-01-18 10:49:00,
2013-01-18 02:54:00,25.1,12.0,30.42,ESE,120,2.3,2.3,57,0.00,CLR,,0.00,WeatherDisplay:10.37,2013-01-18 10:54:00,
2013-01-18 02:59:00,25.0,12.3,30.42,ESE,109,2.3,2.3,58,0.00,CLR,,0.00,WeatherDisplay:10.37,2013-01-18 10:59:00,
2013-01-18 03:04:00,25.1,12.4,30.43,ESE,102,3.5,3.5,58,0.00,CLR,,0.00,WeatherDisplay:10.37,2013-01-18 11:04:00,
2013-01-18 03:09:00,25.0,12.3,30.43,ESE,112,3.5,3.5,58,0.00,CLR,,0.00,WeatherDisplay:10.37,2013-01-18 11:09:00,
2013-01-18 03:14:00,24.8,12.1,30.43,East,97,6.0,6.0,58,0.00,CLR,,0.00,WeatherDisplay:10.37,2013-01-18 11:14:00,
2013-01-18 03:19:00,24.7,12.0,30.43,East,93,4.6,4.6,58,0.00,CLR,,0.00,WeatherDisplay:10.37,2013-01-18 11:19:00,
2013-01-18 03:24:00,24.5,11.8,30.42,East,93,3.5,3.5,58,0.00,CLR,,0.00,WeatherDisplay:10.37,2013-01-18 11:24:00,
2013-01-18 03:29:00,24.4,12.1,30.43,East,93,2.3,2.3,59,0.00,CLR,,0.00,WeatherDisplay:10.37,2013-01-18 11:29:00,
2013-01-18 03:34:00,24.2,11.9,30.43,East,93,3.5,3.5,59,0.00,CLR,,0.00,WeatherDisplay:10.37,2013-01-18 11:34:00,
2013-01-18 03:39:00,24.1,11.8,30.43,East,93,2.3,2.3,59,0.00,CLR,,0.00,WeatherDisplay:10.37,2013-01-18 11:39:00,
2013-01-18 03:44:00,24.1,11.8,30.43,East,93,2.3,2.3,59,0.00,CLR,,0.00,WeatherDisplay:10.37,2013-01-18 11:44:00,
2013-01-18 03:49:00,23.9,11.6,30.43,ESE,113,5.0,5.0,59,0.00,CLR,,0.00,WeatherDisplay:10.37,2013-01-18 11:49:00,
2013-01-18 03:54:00,23.8,11.5,30.43,ESE,117,4.6,4.6,59,0.00,CLR,,0.00,WeatherDisplay:10.37,2013-01-18 11:54:00,
2013-01-18 03:59:00,23.6,11.4,30.43,ESE,117,3.5,3.5,59,0.00,CLR,,0.00,WeatherDisplay:10.37,2013-01-18 11:59:00,
2013-01-18 04:04:00,23.6,11.4,30.45,SE,130,2.3,2.3,59,0.00,CLR,,0.00,WeatherDisplay:10.37,2013-01-18 12:04:00,
2013-01-18 04:09:00,23.6,11.4,30.45,ESE,112,3.5,3.5,59,0.00,CLR,,0.00,WeatherDisplay:10.37,2013-01-18 12:09:00,
2013-01-18 04:14:00,23.6,11.4,30.45,East,96,5.8,5.8,59,0.00,CLR,,0.00,WeatherDisplay:10.37,2013-01-18 12:14:00,
2013-01-18 04:19:00,23.6,11.4,30.45,East,97,6.0,6.0,59,0.00,CLR,,0.00,WeatherDisplay:10.37,2013-01-18 12:19:00,
2013-01-18 04:24:00,23.6,11.4,30.45,ESE,113,5.8,5.8,59,0.00,CLR,,0.00,WeatherDisplay:10.37,2013-01-18 12:24:00,
2013-01-18 04:29:00,23.8,11.2,30.45,East,85,5.0,5.0,58,0.00,CLR,,0.00,WeatherDisplay:10.37,2013-01-18 12:29:00,
2013-01-18 04:34:00,23.6,11.4,30.45,ESE,114,3.5,3.5,59,0.00,CLR,,0.00,WeatherDisplay:10.37,2013-01-18 12:34:00,
2013-01-18 04:39:00,23.5,11.3,30.45,ESE,102,6.0,6.0,59,0.00,CLR,,0.00,WeatherDisplay:10.37,2013-01-18 12:39:00,
2013-01-18 04:44:00,23.5,11.3,30.45,East,88,3.5,3.5,59,0.00,CLR,,0.00,WeatherDisplay:10.37,2013-01-18 12:44:00,
2013-01-18 04:49:00,23.3,11.1,30.45,ESE,114,5.8,5.8,59,0.00,CLR,,0.00,WeatherDisplay:10.37,2013-01-18 12:49:00,
2013-01-18 04:54:00,23.2,11.0,30.45,East,100,2.3,2.3,59,0.00,CLR,,0.00,WeatherDisplay:10.37,2013-01-18 12:54:00,
2013-01-18 04:59:00,23.2,11.0,30.45,East,99,3.5,3.5,59,0.00,CLR,,0.00,WeatherDisplay:10.37,2013-01-18 12:59:00,
2013-01-18 05:04:00,23.2,11.0,30.47,East,100,2.3,2.3,59,0.00,CLR,,0.00,WeatherDisplay:10.37,2013-01-18 13:04:00,
2013-01-18 05:09:00,23.0,10.8,30.47,East,99,2.0,2.0,59,0.00,CLR,,0.00,WeatherDisplay:10.37,2013-01-18 13:09:00,
2013-01-18 05:14:00,23.0,10.8,30.47,East,80,6.0,6.0,59,0.00,CLR,,0.00,WeatherDisplay:10.37,2013-01-18 13:14:00,
2013-01-18 05:19:00,22.9,10.7,30.47,East,99,5.8,5.8,59,0.00,CLR,,0.00,WeatherDisplay:10.37,2013-01-18 13:19:00,
2013-01-18 05:24:00,22.5,10.3,30.47,East,92,3.5,3.5,59,0.00,CLR,,0.00,WeatherDisplay:10.37,2013-01-18 13:24:00,
2013-01-18 05:29:00,22.4,10.6,30.47,ESE,106,5.0,5.0,60,0.00,CLR,,0.00,WeatherDisplay:10.37,2013-01-18 13:29:00,
2013-01-18 05:34:00,22.2,10.4,30.47,ESE,106,3.5,3.5,60,0.00,CLR,,0.00,WeatherDisplay:10.37,2013-01-18 13:34:00,
2013-01-18 05:39:00,22.2,10.4,30.48,ESE,106,3.5,3.5,60,0.00,CLR,,0.00,WeatherDisplay:10.37,2013-01-18 13:39:00,
2013-01-18 05:44:00,22.2,10.4,30.47,ESE,103,4.0,4.0,60,0.00,CLR,,0.00,WeatherDisplay:10.37,2013-01-18 13:44:00,
2013-01-18 05:49:00,22.1,10.3,30.47,SE,130,5.0,5.0,60,0.00,CLR,,0.00,WeatherDisplay:10.37,2013-01-18 13:49:00,
2013-01-18 05:54:00,22.1,10.7,30.47,ESE,117,3.5,3.5,61,0.00,CLR,,0.00,WeatherDisplay:10.37,2013-01-18 13:54:00,
2013-01-18 05:59:00,22.1,10.7,30.47,SE,140,3.5,3.5,61,0.00,CLR,,0.00,WeatherDisplay:10.37,2013-01-18 13:59:00,
2013-01-18 06:04:00,22.1,10.7,30.48,SE,136,4.6,4.6,61,0.00,CLR,,0.00,WeatherDisplay:10.37,2013-01-18 14:04:00,
2013-01-18 06:09:00,22.2,10.8,30.48,East,95,10.0,10.0,61,0.00,CLR,,0.00,WeatherDisplay:10.37,2013-01-18 14:09:00,
2013-01-18 06:14:00,22.7,10.9,30.47,SE,133,9.0,9.0,60,0.00,CLR,,0.00,WeatherDisplay:10.37,2013-01-18 14:14:00,
2013-01-18 06:19:00,23.2,11.4,30.47,SSE,147,3.5,3.5,60,0.00,CLR,,0.00,WeatherDisplay:10.37,2013-01-18 14:19:00,
2013-01-18 06:24:00,23.0,11.2,30.48,SSE,147,2.3,2.3,60,0.00,CLR,,0.00,WeatherDisplay:10.37,2013-01-18 14:24:00,
2013-01-18 06:29:00,22.9,11.1,30.48,ESE,106,2.3,2.3,60,0.00,CLR,,0.00,WeatherDisplay:10.37,2013-01-18 14:29:00,
2013-01-18 06:34:00,22.5,10.7,30.48,ESE,106,0.0,0.0,60,0.00,CLR,,0.00,WeatherDisplay:10.37,2013-01-18 14:34:00,
2013-01-18 06:39:00,22.4,10.6,30.48,ESE,106,2.3,0.0,60,0.00,CLR,,0.00,WeatherDisplay:10.37,2013-01-18 14:39:00,
2013-01-18 06:44:00,22.2,10.4,30.48,ESE,106,2.0,2.0,60,0.00,CLR,,0.00,WeatherDisplay:10.37,2013-01-18 14:44:00,
2013-01-18 06:49:00,21.9,10.5,30.48,ESE,106,2.3,2.3,61,0.00,CLR,,0.00,WeatherDisplay:10.37,2013-01-18 14:49:00,
2013-01-18 06:54:00,21.8,10.4,30.48,ESE,106,2.3,2.3,61,0.00,CLR,,0.00,WeatherDisplay:10.37,2013-01-18 14:54:00,
2013-01-18 06:59:00,21.4,10.4,30.48,ESE,106,1.1,1.1,62,0.00,CLR,,0.00,WeatherDisplay:10.37,2013-01-18 14:59:00,
2013-01-18 07:04:00,21.3,10.3,30.50,ESE,106,3.0,3.0,62,0.00,CLR,,0.00,WeatherDisplay:10.37,2013-01-18 15:04:00,
2013-01-18 07:09:00,21.1,10.1,30.50,ESE,106,3.5,3.5,62,0.00,CLR,,0.00,WeatherDisplay:10.37,2013-01-18 15:09:00,
2013-01-18 07:14:00,21.0,10.0,30.50,ESE,106,2.3,2.3,62,0.00,CLR,,0.00,WeatherDisplay:10.37,2013-01-18 15:14:00,
2013-01-18 07:19:00,21.0,10.0,30.50,ESE,104,4.6,4.6,62,0.00,CLR,,0.00,WeatherDisplay:10.37,2013-01-18 15:19:00,
2013-01-18 07:24:00,21.0,10.0,30.50,ESE,104,2.3,2.3,62,0.00,CLR,,0.00,WeatherDisplay:10.37,2013-01-18 15:24:00,
2013-01-18 07:29:00,21.0,10.0,30.50,ESE,104,2.3,2.3,62,0.00,CLR,,0.00,WeatherDisplay:10.37,2013-01-18 15:29:00,
2013-01-18 07:34:00,21.1,10.1,30.51,East,93,4.0,4.0,62,0.00,CLR,,0.00,WeatherDisplay:10.37,2013-01-18 15:34:00,
2013-01-18 07:39:00,21.3,10.3,30.51,East,95,4.6,4.6,62,0.00,CLR,,0.00,WeatherDisplay:10.37,2013-01-18 15:39:00,
2013-01-18 07:44:00,21.4,10.0,30.51,East,95,2.3,2.3,61,0.00,CLR,,0.00,WeatherDisplay:10.37,2013-01-18 15:44:00,
2013-01-18 07:49:00,21.6,10.2,30.50,East,95,3.5,3.5,61,0.00,CLR,,0.00,WeatherDisplay:10.37,2013-01-18 15:49:00,
2013-01-18 07:54:00,21.8,10.0,30.50,East,95,2.3,0.0,60,0.00,CLR,,0.00,WeatherDisplay:10.37,2013-01-18 15:54:00,
2013-01-18 07:59:00,21.9,10.1,30.50,East,95,0.0,0.0,60,0.00,CLR,,0.00,WeatherDisplay:10.37,2013-01-18 15:59:00,
2013-01-18 08:04:00,22.4,10.2,30.50,East,95,2.3,2.3,59,0.00,CLR,,0.00,WeatherDisplay:10.37,2013-01-18 16:04:00,
2013-01-18 08:09:00,22.4,10.2,30.50,East,100,5.0,5.0,59,0.00,CLR,,0.00,WeatherDisplay:10.37,2013-01-18 16:09:00,
2013-01-18 08:14:00,22.5,9.9,30.50,SE,131,2.3,2.3,58,0.00,CLR,,0.00,WeatherDisplay:10.37,2013-01-18 16:14:00,
2013-01-18 08:20:00,23.0,10.4,30.50,SE,125,1.0,3.0,58,0.00,CLR,,0.00,WeatherDisplay:10.37,2013-01-18 16:20:00,
2013-01-18 08:25:00,23.6,10.2,30.50,ENE,66,3.5,3.5,56,0.00,CLR,,0.00,WeatherDisplay:10.37,2013-01-18 16:25:00,
2013-01-18 08:30:00,24.1,10.2,30.50,ESE,106,4.6,4.6,55,0.00,CLR,,0.00,WeatherDisplay:10.37,2013-01-18 16:30:00,
2013-01-18 08:35:00,24.7,10.8,30.50,ESE,103,3.5,3.5,55,0.00,CLR,,0.00,WeatherDisplay:10.37,2013-01-18 16:35:00,
2013-01-18 08:41:00,25.1,10.8,30.50,East,95,4.6,4.6,54,0.00,CLR,,0.00,WeatherDisplay:10.37,2013-01-18 16:41:00,
2013-01-18 08:46:00,25.1,10.8,30.50,ESE,103,5.8,5.8,54,0.00,CLR,,0.00,WeatherDisplay:10.37,2013-01-18 16:46:00,
2013-01-18 08:51:00,25.4,11.0,30.50,East,92,6.9,6.9,54,0.00,CLR,,0.00,WeatherDisplay:10.37,2013-01-18 16:51:00,
2013-01-18 08:57:00,26.1,11.3,30.50,East,95,5.8,5.8,53,0.00,CLR,,0.00,WeatherDisplay:10.37,2013-01-18 16:57:00,
2013-01-18 09:02:00,26.9,11.6,30.51,ESE,113,4.6,4.6,52,0.00,CLR,,0.00,WeatherDisplay:10.37,2013-01-18 17:02:00,
2013-01-18 09:07:00,27.6,11.8,30.50,ESE,110,4.0,4.0,51,0.00,CLR,,0.00,WeatherDisplay:10.37,2013-01-18 17:07:00,
2013-01-18 09:12:00,28.5,12.2,30.50,East,95,5.8,5.8,50,0.00,CLR,,0.00,WeatherDisplay:10.37,2013-01-18 17:12:00,
2013-01-18 09:18:00,30.0,12.7,30.49,ESE,109,4.6,4.6,48,0.00,CLR,,0.00,WeatherDisplay:10.37,2013-01-18 17:18:00,
2013-01-18 09:23:00,30.9,12.5,30.50,East,100,5.8,5.8,46,0.00,CLR,,0.00,WeatherDisplay:10.37,2013-01-18 17:23:00,
2013-01-18 09:28:00,31.5,12.6,30.49,ESE,110,5.0,5.0,45,0.00,CLR,,0.00,WeatherDisplay:10.37,2013-01-18 17:28:00,
2013-01-18 09:33:00,31.5,12.1,30.49,East,82,5.8,5.8,44,0.00,CLR,,0.00,WeatherDisplay:10.37,2013-01-18 17:33:00,
2013-01-18 09:38:00,31.6,12.7,30.49,ESE,110,5.0,5.0,45,0.00,CLR,,0.00,WeatherDisplay:10.37,2013-01-18 17:38:00,
2013-01-18 09:43:00,32.2,12.7,30.49,East,89,6.0,6.0,44,0.00,CLR,,0.00,WeatherDisplay:10.37,2013-01-18 17:43:00,
2013-01-18 09:48:00,32.7,12.6,30.49,ESE,113,6.9,6.9,43,0.00,CLR,,0.00,WeatherDisplay:10.37,2013-01-18 17:48:00,
2013-01-18 09:53:00,33.1,13.0,30.49,East,85,7.0,7.0,43,0.00,CLR,,0.00,WeatherDisplay:10.37,2013-01-18 17:53:00,
2013-01-18 09:58:00,33.5,12.8,30.49,East,99,5.8,5.8,42,0.00,CLR,,0.00,WeatherDisplay:10.37,2013-01-18 17:58:00,
2013-01-18 10:03:00,33.7,12.5,30.47,ESE,116,10.0,10.0,41,0.00,CLR,,0.00,WeatherDisplay:10.37,2013-01-18 18:03:00,
2013-01-18 10:08:00,34.1,12.8,30.47,East,95,8.1,8.1,41,0.00,CLR,,0.00,WeatherDisplay:10.37,2013-01-18 18:08:00,
2013-01-18 10:13:00,34.6,12.7,30.47,ENE,62,8.1,8.1,40,0.00,CLR,,0.00,WeatherDisplay:10.37,2013-01-18 18:13:00,
2013-01-18 10:18:00,34.7,13.4,30.47,East,82,10.4,10.4,41,0.00,CLR,,0.00,WeatherDisplay:10.37,2013-01-18 18:18:00,
2013-01-18 10:23:00,35.5,14.1,30.47,East,96,6.9,6.9,41,0.00,CLR,,0.00,WeatherDisplay:10.37,2013-01-18 18:23:00,
2013-01-18 10:28:00,36.0,14.0,30.46,East,90,6.0,6.0,40,0.00,CLR,,0.00,WeatherDisplay:10.37,2013-01-18 18:28:00,
2013-01-18 10:33:00,36.8,13.5,30.46,East,92,6.9,6.9,38,0.00,CLR,,0.00,WeatherDisplay:10.37,2013-01-18 18:33:00,
2013-01-18 10:38:00,37.2,14.5,30.46,East,85,7.0,7.0,39,0.00,CLR,,0.00,WeatherDisplay:10.37,2013-01-18 18:38:00,
2013-01-18 10:43:00,37.3,14.6,30.46,East,95,7.0,7.0,39,0.00,CLR,,0.00,WeatherDisplay:10.37,2013-01-18 18:43:00,
2013-01-18 10:48:00,37.8,14.4,30.45,East,83,8.1,8.1,38,0.00,CLR,,0.00,WeatherDisplay:10.37,2013-01-18 18:48:00,
2013-01-18 10:54:00,38.2,14.2,30.45,East,82,8.1,8.1,37,0.00,CLR,,0.00,WeatherDisplay:10.37,2013-01-18 18:54:00,
2013-01-18 10:59:00,38.0,14.0,30.45,East,80,10.4,10.4,37,0.00,CLR,,0.00,WeatherDisplay:10.37,2013-01-18 18:59:00,
2013-01-18 11:05:00,38.3,14.3,30.44,East,94,6.0,10.0,37,0.00,CLR,,0.00,WeatherDisplay:10.37,2013-01-18 19:05:00,
2013-01-18 11:10:00,39.1,15.0,30.44,East,88,6.0,8.0,37,0.00,CLR,,0.00,WeatherDisplay:10.37,2013-01-18 19:10:00,
2013-01-18 11:15:00,39.6,14.8,30.43,East,90,9.0,9.0,36,0.00,CLR,,0.00,WeatherDisplay:10.37,2013-01-18 19:15:00,
2013-01-18 11:21:00,40.1,15.2,30.43,ESE,109,6.9,6.9,36,0.00,CLR,,0.00,WeatherDisplay:10.37,2013-01-18 19:21:00,
2013-01-18 11:26:00,40.3,15.4,30.43,ESE,106,6.9,6.9,36,0.00,CLR,,0.00,WeatherDisplay:10.37,2013-01-18 19:26:00,
2013-01-18 11:31:00,40.6,15.7,30.42,ENE,78,8.0,8.0,36,0.00,CLR,,0.00,WeatherDisplay:10.37,2013-01-18 19:31:00,
2013-01-18 11:36:00,41.1,16.8,30.42,ESE,113,8.1,8.1,37,0.00,CLR,,0.00,WeatherDisplay:10.37,2013-01-18 19:36:00,
2013-01-18 11:41:00,41.6,16.6,30.42,SE,127,4.6,4.6,36,0.00,CLR,,0.00,WeatherDisplay:10.37,2013-01-18 19:41:00,
2013-01-18 11:47:00,42.6,14.8,30.41,SE,131,6.9,6.9,32,0.00,CLR,,0.00,WeatherDisplay:10.37,2013-01-18 19:47:00,
2013-01-18 11:53:00,42.2,14.4,30.41,ESE,119,10.4,10.4,32,0.00,CLR,,0.00,WeatherDisplay:10.37,2013-01-18 19:53:00,
2013-01-18 11:58:00,42.6,14.8,30.41,SE,124,10.4,10.4,32,0.00,CLR,,0.00,WeatherDisplay:10.37,2013-01-18 19:58:00,
2013-01-18 12:03:00,42.8,14.9,30.41,ESE,120,10.4,10.4,32,0.00,CLR,,0.00,WeatherDisplay:10.37,2013-01-18 20:03:00,
2013-01-18 12:08:00,43.1,15.2,30.41,ESE,114,8.1,8.1,32,0.00,CLR,,0.00,WeatherDisplay:10.37,2013-01-18 20:08:00,
2013-01-18 12:13:00,43.3,15.4,30.40,SE,144,8.1,8.1,32,0.00,CLR,,0.00,WeatherDisplay:10.37,2013-01-18 20:13:00,
2013-01-18 12:18:00,43.8,16.5,30.40,East,90,6.9,6.9,33,0.00,CLR,,0.00,WeatherDisplay:10.37,2013-01-18 20:18:00,
2013-01-18 12:24:00,43.9,16.6,30.40,East,93,6.0,6.0,33,0.00,CLR,,0.00,WeatherDisplay:10.37,2013-01-18 20:24:00,
2013-01-18 12:30:00,44.5,15.7,30.39,ESE,103,5.0,9.0,31,0.00,CLR,,0.00,WeatherDisplay:10.37,2013-01-18 20:30:00,
2013-01-18 12:35:00,44.1,17.5,30.40,East,83,8.1,8.1,34,0.00,CLR,,0.00,WeatherDisplay:10.37,2013-01-18 20:35:00,
2013-01-18 12:40:00,44.2,17.6,30.39,East,89,6.9,6.9,34,0.00,CLR,,0.00,WeatherDisplay:10.37,2013-01-18 20:40:00,
2013-01-18 12:45:00,44.5,17.1,30.38,SE,140,6.9,6.9,33,0.00,CLR,,0.00,WeatherDisplay:10.37,2013-01-18 20:45:00,
2013-01-18 12:50:00,44.9,18.2,30.38,East,100,6.9,6.9,34,0.00,CLR,,0.00,WeatherDisplay:10.37,2013-01-18 20:50:00,
2013-01-18 12:55:00,45.4,17.9,30.38,ESE,103,8.0,8.0,33,0.00,CLR,,0.00,WeatherDisplay:10.37,2013-01-18 20:55:00,
2013-01-18 13:00:00,45.5,17.3,30.38,SE,133,5.8,5.8,32,0.00,CLR,,0.00,WeatherDisplay:10.37,2013-01-18 21:00:00,
2013-01-18 13:05:00,45.7,17.5,30.38,East,88,8.1,8.1,32,0.00,CLR,,0.00,WeatherDisplay:10.37,2013-01-18 21:05:00,
2013-01-18 13:10:00,45.7,18.2,30.38,East,95,5.8,5.8,33,0.00,CLR,,0.00,WeatherDisplay:10.37,2013-01-18 21:10:00,
2013-01-18 13:15:00,46.4,18.1,30.37,East,97,6.9,6.9,32,0.00,CLR,,0.00,WeatherDisplay:10.37,2013-01-18 21:15:00,
2013-01-18 13:20:00,46.8,18.5,30.36,ESE,114,6.9,6.9,32,0.00,CLR,,0.00,WeatherDisplay:10.37,2013-01-18 21:20:00,
2013-01-18 13:25:00,47.3,18.1,30.36,East,99,6.0,6.0,31,0.00,CLR,,0.00,WeatherDisplay:10.37,2013-01-18 21:25:00,
2013-01-18 13:30:00,47.0,17.9,30.36,ESE,103,10.0,10.0,31,0.00,CLR,,0.00,WeatherDisplay:10.37,2013-01-18 21:30:00,
2013-01-18 13:35:00,47.0,17.9,30.35,East,93,6.9,6.9,31,0.00,CLR,,0.00,WeatherDisplay:10.37,2013-01-18 21:35:00,
2013-01-18 13:40:00,47.1,19.4,30.35,East,97,5.8,5.8,33,0.00,CLR,,0.00,WeatherDisplay:10.37,2013-01-18 21:40:00,
2013-01-18 13:45:00,47.0,18.6,30.35,East,97,6.9,6.9,32,0.00,CLR,,0.00,WeatherDisplay:10.37,2013-01-18 21:45:00,
2013-01-18 13:51:00,47.6,18.4,30.35,ESE,102,7.0,7.0,31,0.00,CLR,,0.00,WeatherDisplay:10.37,2013-01-18 21:51:00,
2013-01-18 13:57:00,47.7,18.5,30.35,ESE,113,6.9,6.9,31,0.00,CLR,,0.00,WeatherDisplay:10.37,2013-01-18 21:57:00,
2013-01-18 14:02:00,47.9,18.7,30.35,ESE,102,7.0,7.0,31,0.00,CLR,,0.00,WeatherDisplay:10.37,2013-01-18 22:02:00,
2013-01-18 14:07:00,48.2,18.9,30.35,ESE,110,9.0,9.0,31,0.00,CLR,,0.00,WeatherDisplay:10.37,2013-01-18 22:07:00,
2013-01-18 14:12:00,48.3,19.0,30.35,ESE,119,7.0,7.0,31,0.00,CLR,,0.00,WeatherDisplay:10.37,2013-01-18 22:12:00,
2013-01-18 14:17:00,48.3,19.0,30.35,East,83,7.0,7.0,31,0.00,CLR,,0.00,WeatherDisplay:10.37,2013-01-18 22:17:00,
2013-01-18 14:22:00,48.2,18.9,30.35,East,96,6.0,6.0,31,0.00,CLR,,0.00,WeatherDisplay:10.37,2013-01-18 22:22:00,
2013-01-18 14:27:00,48.5,19.9,30.35,ENE,75,7.0,7.0,32,0.00,CLR,,0.00,WeatherDisplay:10.37,2013-01-18 22:27:00,
2013-01-18 14:32:00,48.9,19.5,30.34,East,86,4.6,4.6,31,0.00,CLR,,0.00,WeatherDisplay:10.37,2013-01-18 22:32:00,
2013-01-18 14:38:00,49.5,20.1,30.34,East,79,5.8,5.8,31,0.00,CLR,,0.00,WeatherDisplay:10.37,2013-01-18 22:38:00,
2013-01-18 14:43:00,49.8,20.3,30.34,ESE,103,4.6,4.6,31,0.00,CLR,,0.00,WeatherDisplay:10.37,2013-01-18 22:43:00,
2013-01-18 14:48:00,49.9,19.7,30.34,ESE,116,6.9,6.9,30,0.00,CLR,,0.00,WeatherDisplay:10.37,2013-01-18 22:48:00,
2013-01-18 14:53:00,49.9,20.4,30.34,East,99,10.4,10.4,31,0.00,CLR,,0.00,WeatherDisplay:10.37,2013-01-18 22:53:00,
2013-01-18 14:59:00,49.9,19.7,30.34,East,99,8.1,8.1,30,0.00,CLR,,0.00,WeatherDisplay:10.37,2013-01-18 22:59:00,
2013-01-18 15:04:00,49.5,20.1,30.34,East,82,4.6,4.6,31,0.00,CLR,,0.00,WeatherDisplay:10.37,2013-01-18 23:04:00,
2013-01-18 15:09:00,49.4,20.0,30.34,East,83,7.0,7.0,31,0.00,CLR,,0.00,WeatherDisplay:10.37,2013-01-18 23:09:00,
2013-01-18 15:14:00,48.8,19.5,30.35,ESE,103,7.0,7.0,31,0.00,CLR,,0.00,WeatherDisplay:10.37,2013-01-18 23:14:00,
2013-01-18 15:19:00,48.3,19.8,30.35,ENE,73,8.1,8.1,32,0.00,CLR,,0.00,WeatherDisplay:10.37,2013-01-18 23:19:00,
2013-01-18 15:25:00,48.0,19.5,30.35,East,81,2.0,6.0,32,0.00,CLR,,0.00,WeatherDisplay:10.37,2013-01-18 23:25:00,
2013-01-18 15:30:00,48.0,20.2,30.35,East,88,1.0,6.0,33,0.00,CLR,,0.00,WeatherDisplay:10.37,2013-01-18 23:30:00,
2013-01-18 15:35:00,48.0,20.2,30.35,East,93,3.5,3.5,33,0.00,CLR,,0.00,WeatherDisplay:10.37,2013-01-18 23:35:00,
2013-01-18 15:40:00,47.9,20.1,30.35,ESE,110,5.8,5.8,33,0.00,CLR,,0.00,WeatherDisplay:10.37,2013-01-18 23:40:00,
2013-01-18 15:45:00,47.6,19.9,30.35,East,92,6.0,6.0,33,0.00,CLR,,0.00,WeatherDisplay:10.37,2013-01-18 23:45:00,
2013-01-18 15:50:00,47.1,20.1,30.36,East,86,5.8,5.8,34,0.00,CLR,,0.00,WeatherDisplay:10.37,2013-01-18 23:50:00,
2013-01-18 15:55:00,46.7,19.1,30.36,ENE,65,3.0,3.0,33,0.00,CLR,,0.00,WeatherDisplay:10.37,2013-01-18 23:55:00,
2013-01-18 16:00:00,46.4,19.5,30.36,East,97,3.5,3.5,34,0.00,CLR,,0.00,WeatherDisplay:10.37,2013-01-19 00:00:00,
2013-01-18 16:05:00,45.8,19.0,30.37,ENE,71,3.5,3.5,34,0.00,CLR,,0.00,WeatherDisplay:10.37,2013-01-19 00:05:00,
2013-01-18 16:10:00,45.4,18.6,30.37,East,82,5.8,5.8,34,0.00,CLR,,0.00,WeatherDisplay:10.37,2013-01-19 00:10:00,
2013-01-18 16:15:00,44.9,18.2,30.37,East,82,5.8,5.8,34,0.00,CLR,,0.00,WeatherDisplay:10.37,2013-01-19 00:15:00,
2013-01-18 16:20:00,44.1,18.2,30.38,ENE,78,3.5,3.5,35,0.00,CLR,,0.00,WeatherDisplay:10.37,2013-01-19 00:20:00,
2013-01-18 16:25:00,43.5,17.6,30.38,East,90,5.0,5.0,35,0.00,CLR,,0.00,WeatherDisplay:10.37,2013-01-19 00:25:00,
2013-01-18 16:30:00,42.9,17.7,30.38,East,89,3.5,3.5,36,0.00,CLR,,0.00,WeatherDisplay:10.37,2013-01-19 00:30:00,
2013-01-18 16:35:00,42.6,17.5,30.38,East,89,2.3,2.3,36,0.00,CLR,,0.00,WeatherDisplay:10.37,2013-01-19 00:35:00,
2013-01-18 16:40:00,42.3,17.8,30.39,East,95,3.0,3.0,37,0.00,CLR,,0.00,WeatherDisplay:10.37,2013-01-19 00:40:00,
2013-01-18 16:45:00,41.8,17.4,30.39,East,83,4.0,4.0,37,0.00,CLR,,0.00,WeatherDisplay:10.37,2013-01-19 00:45:00,
2013-01-18 16:51:00,41.1,17.4,30.39,East,83,2.3,2.3,38,0.00,CLR,,0.00,WeatherDisplay:10.37,2013-01-19 00:51:00,
2013-01-18 16:56:00,40.6,17.5,30.39,East,83,0.0,0.0,39,0.00,CLR,,0.00,WeatherDisplay:10.37,2013-01-19 00:56:00,
2013-01-18 17:01:00,40.1,17.7,30.40,East,83,1.1,0.0,40,0.00,CLR,,0.00,WeatherDisplay:10.37,2013-01-19 01:01:00,
2013-01-18 17:06:00,39.3,17.5,30.40,East,83,0.0,0.0,41,0.00,CLR,,0.00,WeatherDisplay:10.37,2013-01-19 01:06:00,
2013-01-18 17:11:00,38.8,17.1,30.41,East,83,1.1,0.0,41,0.00,CLR,,0.00,WeatherDisplay:10.37,2013-01-19 01:11:00,
2013-01-18 17:17:00,38.3,17.2,30.41,East,83,1.1,1.1,42,0.00,CLR,,0.00,WeatherDisplay:10.37,2013-01-19 01:17:00,
2013-01-18 17:22:00,37.9,17.4,30.41,East,83,2.3,2.3,43,0.00,CLR,,0.00,WeatherDisplay:10.37,2013-01-19 01:22:00,
2013-01-18 17:27:00,37.5,17.0,30.41,East,96,3.5,3.5,43,0.00,CLR,,0.00,WeatherDisplay:10.37,2013-01-19 01:27:00,
2013-01-18 17:32:00,36.9,17.0,30.42,East,96,2.3,2.3,44,0.00,CLR,,0.00,WeatherDisplay:10.37,2013-01-19 01:32:00,
2013-01-18 17:37:00,36.6,16.7,30.42,East,97,3.5,3.5,44,0.00,CLR,,0.00,WeatherDisplay:10.37,2013-01-19 01:37:00,
2013-01-18 17:42:00,36.3,17.0,30.42,East,95,3.5,3.5,45,0.00,CLR,,0.00,WeatherDisplay:10.37,2013-01-19 01:42:00,
2013-01-18 17:47:00,35.9,17.1,30.42,East,95,2.3,2.3,46,0.00,CLR,,0.00,WeatherDisplay:10.37,2013-01-19 01:47:00,
2013-01-18 17:52:00,35.6,17.3,30.42,East,95,2.3,2.3,47,0.00,CLR,,0.00,WeatherDisplay:10.37,2013-01-19 01:52:00,
2013-01-18 17:57:00,35.5,17.2,30.42,East,95,3.5,3.5,47,0.00,CLR,,0.00,WeatherDisplay:10.37,2013-01-19 01:57:00,
2013-01-18 18:02:00,35.3,17.1,30.43,East,95,3.5,3.5,47,0.00,CLR,,0.00,WeatherDisplay:10.37,2013-01-19 02:02:00,
2013-01-18 18:07:00,35.2,17.0,30.44,East,92,3.5,3.5,47,0.00,CLR,,0.00,WeatherDisplay:10.37,2013-01-19 02:07:00,
2013-01-18 18:12:00,34.7,17.0,30.44,East,92,3.5,3.5,48,0.00,CLR,,0.00,WeatherDisplay:10.37,2013-01-19 02:12:00,
2013-01-18 18:17:00,34.4,17.2,30.45,ESE,103,5.8,5.8,49,0.00,CLR,,0.00,WeatherDisplay:10.37,2013-01-19 02:17:00,
2013-01-18 18:22:00,33.8,17.1,30.45,ESE,116,2.3,2.3,50,0.00,CLR,,0.00,WeatherDisplay:10.37,2013-01-19 02:22:00,
2013-01-18 18:27:00,33.4,17.2,30.45,ESE,114,2.3,2.3,51,0.00,CLR,,0.00,WeatherDisplay:10.37,2013-01-19 02:27:00,
2013-01-18 18:33:00,33.1,16.9,30.45,ESE,114,2.3,2.3,51,0.00,CLR,,0.00,WeatherDisplay:10.37,2013-01-19 02:33:00,
2013-01-18 18:39:00,32.9,17.2,30.45,ESE,114,2.3,2.3,52,0.00,CLR,,0.00,WeatherDisplay:10.37,2013-01-19 02:39:00,
2013-01-18 18:44:00,32.8,17.1,30.45,ESE,114,0.0,0.0,52,0.00,CLR,,0.00,WeatherDisplay:10.37,2013-01-19 02:44:00,
2013-01-18 18:49:00,32.5,17.2,30.45,ESE,114,0.0,0.0,53,0.00,CLR,,0.00,WeatherDisplay:10.37,2013-01-19 02:49:00,
2013-01-18 18:54:00,32.2,17.0,30.45,ESE,114,1.1,0.0,53,0.00,CLR,,0.00,WeatherDisplay:10.37,2013-01-19 02:54:00,
2013-01-18 18:59:00,31.9,17.1,30.45,ESE,114,1.1,0.0,54,0.00,CLR,,0.00,WeatherDisplay:10.37,2013-01-19 02:59:00,
2013-01-18 19:04:00,31.6,17.3,30.45,ESE,114,1.1,0.0,55,0.00,CLR,,0.00,WeatherDisplay:10.37,2013-01-19 03:04:00,
2013-01-18 19:09:00,31.3,17.4,30.46,ESE,114,2.3,2.3,56,0.00,CLR,,0.00,WeatherDisplay:10.37,2013-01-19 03:09:00,
2013-01-18 19:14:00,31.6,17.7,30.45,ESE,114,3.5,3.5,56,0.00,CLR,,0.00,WeatherDisplay:10.37,2013-01-19 03:14:00,
2013-01-18 19:19:00,32.1,17.7,30.45,ESE,107,3.5,3.5,55,0.00,CLR,,0.00,WeatherDisplay:10.37,2013-01-19 03:19:00,
2013-01-18 19:24:00,31.9,17.5,30.45,East,100,3.5,3.5,55,0.00,CLR,,0.00,WeatherDisplay:10.37,2013-01-19 03:24:00,
2013-01-18 19:29:00,31.6,17.7,30.45,East,100,2.3,2.3,56,0.00,CLR,,0.00,WeatherDisplay:10.37,2013-01-19 03:29:00,
2013-01-18 19:34:00,31.3,17.4,30.45,East,100,2.3,0.0,56,0.00,CLR,,0.00,WeatherDisplay:10.37,2013-01-19 03:34:00,
2013-01-18 19:39:00,31.0,17.1,30.46,East,100,2.3,2.3,56,0.00,CLR,,0.00,WeatherDisplay:10.37,2013-01-19 03:39:00,
2013-01-18 19:44:00,31.0,17.1,30.46,East,100,2.3,2.3,56,0.00,CLR,,0.00,WeatherDisplay:10.37,2013-01-19 03:44:00,
2013-01-18 19:50:00,30.9,17.0,30.46,East,100,2.0,5.0,56,0.00,CLR,,0.00,WeatherDisplay:10.37,2013-01-19 03:50:00,
2013-01-18 19:55:00,30.9,17.0,30.46,East,97,3.5,3.5,56,0.00,CLR,,0.00,WeatherDisplay:10.37,2013-01-19 03:55:00,
2013-01-18 20:00:00,30.7,17.3,30.46,East,97,2.3,2.3,57,0.00,CLR,,0.00,WeatherDisplay:10.37,2013-01-19 04:00:00,
2013-01-18 20:05:00,30.6,17.6,30.44,East,97,5.8,5.8,58,0.00,CLR,,0.00,WeatherDisplay:10.37,2013-01-19 04:05:00,
2013-01-18 20:10:00,30.4,17.4,30.45,East,97,6.0,6.0,58,0.00,CLR,,0.00,WeatherDisplay:10.37,2013-01-19 04:10:00,
2013-01-18 20:15:00,30.4,17.0,30.45,East,97,4.6,4.6,57,0.00,CLR,,0.00,WeatherDisplay:10.37,2013-01-19 04:15:00,
2013-01-18 20:20:00,30.6,17.2,30.45,ESE,110,5.8,5.8,57,0.00,CLR,,0.00,WeatherDisplay:10.37,2013-01-19 04:20:00,
2013-01-18 20:25:00,30.6,17.2,30.44,ESE,102,4.6,4.6,57,0.00,CLR,,0.00,WeatherDisplay:10.37,2013-01-19 04:25:00,
2013-01-18 20:30:00,30.6,17.2,30.44,East,99,3.0,3.0,57,0.00,CLR,,0.00,WeatherDisplay:10.37,2013-01-19 04:30:00,
2013-01-18 20:35:00,30.3,16.9,30.45,East,99,1.1,1.1,57,0.00,CLR,,0.00,WeatherDisplay:10.37,2013-01-19 04:35:00,
2013-01-18 20:40:00,30.3,16.9,30.45,East,99,2.3,2.3,57,0.00,CLR,,0.00,WeatherDisplay:10.37,2013-01-19 04:40:00,
2013-01-18 20:45:00,30.1,16.7,30.46,East,99,1.1,0.0,57,0.00,CLR,,0.00,WeatherDisplay:10.37,2013-01-19 04:45:00,
2013-01-18 20:50:00,30.1,17.1,30.45,East,99,2.3,2.3,58,0.00,CLR,,0.00,WeatherDisplay:10.37,2013-01-19 04:50:00,
2013-01-18 20:55:00,30.0,17.0,30.45,East,99,2.3,0.0,58,0.00,CLR,,0.00,WeatherDisplay:10.37,2013-01-19 04:55:00,
2013-01-18 21:02:00,29.8,16.8,30.42,East,99,2.3,0.0,58,0.00,CLR,,0.00,WeatherDisplay:10.37,2013-01-19 05:02:00,
2013-01-18 21:06:00,29.8,16.8,30.42,East,99,1.1,1.1,58,0.00,CLR,,0.00,WeatherDisplay:10.37,2013-01-19 05:06:00,
2013-01-18 21:11:00,29.7,17.1,30.42,East,99,0.0,0.0,59,0.00,CLR,,0.00,WeatherDisplay:10.37,2013-01-19 05:11:00,
2013-01-18 21:15:00,29.5,16.9,30.42,East,99,0.0,1.0,59,0.00,CLR,,0.00,WeatherDisplay:10.37,2013-01-19 05:15:00,
2013-01-18 21:20:00,29.5,16.9,30.43,East,99,1.0,3.0,59,0.00,CLR,,0.00,WeatherDisplay:10.37,2013-01-19 05:20:00,
2013-01-18 21:25:00,29.5,16.9,30.43,East,99,2.3,2.3,59,0.00,CLR,,0.00,WeatherDisplay:10.37,2013-01-19 05:25:00,
2013-01-18 21:28:00,29.5,16.9,30.43,East,86,6.0,6.0,59,0.00,CLR,,0.00,WeatherDisplay:10.37,2013-01-19 05:28:00,
2013-01-18 21:33:00,29.5,16.9,30.43,East,88,6.9,6.9,59,0.00,CLR,,0.00,WeatherDisplay:10.37,2013-01-19 05:33:00,
2013-01-18 21:38:00,29.3,16.7,30.44,East,93,2.0,2.0,59,0.00,CLR,,0.00,WeatherDisplay:10.37,2013-01-19 05:38:00,
2013-01-18 21:43:00,29.0,16.8,30.44,East,93,2.3,2.3,60,0.00,CLR,,0.00,WeatherDisplay:10.37,2013-01-19 05:43:00,
2013-01-18 21:48:00,28.8,16.6,30.44,East,93,2.0,2.0,60,0.00,CLR,,0.00,WeatherDisplay:10.37,2013-01-19 05:48:00,
2013-01-18 21:53:00,28.7,16.6,30.45,East,93,2.3,2.3,60,0.00,CLR,,0.00,WeatherDisplay:10.37,2013-01-19 05:53:00,
2013-01-18 21:58:00,28.7,16.6,30.45,East,93,0.0,0.0,60,0.00,CLR,,0.00,WeatherDisplay:10.37,2013-01-19 05:58:00,
2013-01-18 22:03:00,28.5,16.4,30.43,East,93,0.0,0.0,60,0.00,CLR,,0.00,WeatherDisplay:10.37,2013-01-19 06:03:00,
2013-01-18 22:08:00,28.5,16.4,30.43,East,93,1.1,0.0,60,0.00,CLR,,0.00,WeatherDisplay:10.37,2013-01-19 06:08:00,
2013-01-18 22:13:00,28.4,16.3,30.43,East,93,0.0,0.0,60,0.00,CLR,,0.00,WeatherDisplay:10.37,2013-01-19 06:13:00,
2013-01-18 22:18:00,28.1,16.0,30.43,East,93,0.0,0.0,60,0.00,CLR,,0.00,WeatherDisplay:10.37,2013-01-19 06:18:00,
2013-01-18 22:23:00,27.6,16.3,30.43,East,93,0.0,0.0,62,0.00,CLR,,0.00,WeatherDisplay:10.37,2013-01-19 06:23:00,
2013-01-18 22:28:00,27.3,16.0,30.43,East,93,1.1,1.1,62,0.00,CLR,,0.00,WeatherDisplay:10.37,2013-01-19 06:28:00,
2013-01-18 22:33:00,27.2,15.9,30.44,East,93,2.3,2.3,62,0.00,CLR,,0.00,WeatherDisplay:10.37,2013-01-19 06:33:00,
2013-01-18 22:38:00,27.9,16.2,30.43,East,99,5.0,5.0,61,0.00,CLR,,0.00,WeatherDisplay:10.37,2013-01-19 06:38:00,
2013-01-18 22:43:00,28.2,16.1,30.43,ESE,103,5.0,5.0,60,0.00,CLR,,0.00,WeatherDisplay:10.37,2013-01-19 06:43:00,
2013-01-18 22:48:00,28.2,16.1,30.43,East,97,3.5,3.5,60,0.00,CLR,,0.00,WeatherDisplay:10.37,2013-01-19 06:48:00,
2013-01-18 22:53:00,28.1,16.0,30.43,East,97,0.0,0.0,60,0.00,CLR,,0.00,WeatherDisplay:10.37,2013-01-19 06:53:00,
2013-01-18 22:58:00,27.9,15.8,30.43,East,97,3.0,3.0,60,0.00,CLR,,0.00,WeatherDisplay:10.37,2013-01-19 06:58:00,
2013-01-18 23:03:00,27.8,15.7,30.42,East,97,2.3,2.3,60,0.00,CLR,,0.00,WeatherDisplay:10.37,2013-01-19 07:03:00,
2013-01-18 23:08:00,27.8,15.7,30.42,East,97,3.5,3.5,60,0.00,CLR,,0.00,WeatherDisplay:10.37,2013-01-19 07:08:00,
2013-01-18 23:13:00,27.8,15.7,30.42,East,97,2.3,2.3,60,0.00,CLR,,0.00,WeatherDisplay:10.37,2013-01-19 07:13:00,
2013-01-18 23:18:00,27.9,15.8,30.42,East,97,2.3,2.3,60,0.00,CLR,,0.00,WeatherDisplay:10.37,2013-01-19 07:18:00,
2013-01-18 23:23:00,28.1,15.6,30.42,East,97,3.5,3.5,59,0.00,CLR,,0.00,WeatherDisplay:10.37,2013-01-19 07:23:00,
2013-01-18 23:28:00,28.1,15.6,30.42,ESE,112,2.3,2.3,59,0.00,CLR,,0.00,WeatherDisplay:10.37,2013-01-19 07:28:00,
2013-01-18 23:33:00,27.9,15.4,30.42,ESE,112,1.1,0.0,59,0.00,CLR,,0.00,WeatherDisplay:10.37,2013-01-19 07:33:00,
2013-01-18 23:38:00,27.6,15.1,30.42,ESE,112,1.1,0.0,59,0.00,CLR,,0.00,WeatherDisplay:10.37,2013-01-19 07:38:00,
2013-01-18 23:43:00,27.6,15.1,30.42,ESE,110,2.3,2.3,59,0.00,CLR,,0.00,WeatherDisplay:10.37,2013-01-19 07:43:00,
2013-01-18 23:49:00,27.5,15.0,30.42,ESE,112,3.5,3.5,59,0.00,CLR,,0.00,WeatherDisplay:10.37,2013-01-19 07:49:00,
2013-01-18 23:54:00,27.5,15.0,30.42,ESE,107,2.3,2.3,59,0.00,CLR,,0.00,WeatherDisplay:10.37,2013-01-19 07:54:00,
2013-01-18 23:59:00,27.3,15.2,30.42,ESE,112,3.5,3.5,60,0.00,CLR,,0.00,WeatherDisplay:10.37,2013-01-19 07:59:00,